Location: Huntsville
(41.2590°N, 111.7678°W)
Time: 02:02:52
(UTC+00:00)

Tiros 1 - All Passes

Search period start: 03 October 2022 00:00
Search period end: 13 October 2022 00:00
Orbit: 629 x 663 km, 48.4° (Epoch: 02 October)

Date Brightness Start Highest point End Pass type
(mag) Time Alt. Az. Time Alt. Az. Time Alt. Az.
03 Oct - 04:39:08 10° SE 04:40:17 11° SE 04:41:26 10° ESE night (unlit)
03 Oct - 06:16:59 10° SW 06:21:41 56° SE 06:26:23 10° ENE night (unlit)
03 Oct - 07:59:21 10° W 08:04:00 47° NNW 08:08:37 10° ENE night (unlit)
03 Oct - 09:42:30 10° WNW 09:46:54 34° N 09:51:15 10° ENE visible
03 Oct - 11:24:57 10° WNW 11:29:41 61° NNE 11:34:21 10° ESE visible
03 Oct - 13:07:24 10° WNW 13:11:44 35° SW 13:15:58 10° SSE daylight
04 Oct - 05:01:34 10° S 05:05:27 25° SE 05:09:21 10° E night (unlit)
04 Oct - 06:42:28 10° WSW 06:47:17 79° NNW 06:52:06 10° ENE night (unlit)
04 Oct - 08:25:29 10° WNW 08:29:56 37° N 08:34:22 10° ENE night (unlit)
04 Oct - 10:08:22 10° WNW 10:12:53 40° NNE 10:17:22 10° E visible
04 Oct - 11:50:37 10° WNW 11:55:23 79° SSW 12:00:05 10° SE visible
04 Oct - 13:34:01 10° W 13:36:59 16° SW 13:39:53 10° S daylight
05 Oct - 05:26:10 10° SW 05:30:49 51° SE 05:35:29 10° ENE night (unlit)
05 Oct - 07:08:24 10° W 07:13:04 49° NNW 07:17:44 10° ENE night (unlit)
05 Oct - 08:51:34 10° WNW 08:55:57 34° N 09:00:19 10° ENE night (unlit)
05 Oct - 10:34:03 10° WNW 10:38:47 57° NNE 10:43:26 10° ESE visible
05 Oct - 12:16:27 10° WNW 12:20:52 39° SW 12:25:14 10° SSE visible
06 Oct - 04:10:53 10° S 04:14:36 23° SE 04:18:20 10° E night (unlit)
06 Oct - 05:51:33 10° WSW 05:56:23 84° NNW 06:01:12 10° ENE night (unlit)
06 Oct - 07:34:31 10° WNW 07:38:59 37° N 07:43:28 10° ENE night (unlit)
06 Oct - 09:17:27 10° WNW 09:21:58 39° NNE 09:26:26 10° E visible
06 Oct - 10:59:42 10° WNW 11:04:30 84° SSW 11:09:13 10° ESE visible
06 Oct - 12:42:55 10° W 12:46:08 18° SW 12:49:20 10° S visible
07 Oct - 04:35:20 10° SW 04:39:55 47° SE 04:44:33 10° ENE night (unlit)
07 Oct - 06:17:26 10° W 06:22:08 52° NNW 06:26:50 10° ENE night (unlit)
07 Oct - 08:00:37 10° WNW 08:05:00 34° N 08:09:23 10° ENE night (unlit)
07 Oct - 09:43:09 10° WNW 09:47:52 54° NNE 09:52:31 10° E visible
07 Oct - 11:25:30 10° WNW 11:30:00 43° SW 11:34:27 10° SSE visible
08 Oct - 03:20:13 10° S 03:23:45 21° SE 03:27:17 10° E visible
08 Oct - 05:00:39 10° WSW 05:05:28 90° NNW 05:10:18 10° ENE night (unlit)
08 Oct - 06:43:33 10° W 06:48:04 38° N 06:52:33 10° ENE night (unlit)
08 Oct - 08:26:31 10° WNW 08:31:01 38° N 08:35:29 10° E night (unlit)
08 Oct - 10:08:47 10° WNW 10:13:35 90° N 10:18:21 10° ESE visible
08 Oct - 11:51:50 10° W 11:55:18 20° SW 11:58:44 10° S visible
09 Oct - 03:44:31 10° SSW 03:49:03 43° SE 03:53:36 10° ENE visible
09 Oct - 05:26:29 10° W 05:31:12 55° NNW 05:35:56 10° ENE night (unlit)
09 Oct - 07:09:39 10° WNW 07:14:03 34° N 07:18:27 10° ENE night (unlit)
09 Oct - 08:52:14 10° WNW 08:56:56 52° NNE 09:01:35 10° E night (unlit)
09 Oct - 10:34:32 10° WNW 10:39:08 47° SW 10:43:39 10° SE visible
10 Oct - 02:29:36 10° S 02:32:54 19° SE 02:36:12 10° E visible
10 Oct - 04:09:45 10° WSW 04:14:33 84° SSE 04:19:23 10° ENE visible
10 Oct - 05:52:34 10° W 05:57:06 39° NNW 06:01:38 10° ENE night (unlit)
10 Oct - 07:35:35 10° WNW 07:40:04 37° N 07:44:31 10° ENE night (unlit)
10 Oct - 09:17:52 10° WNW 09:22:41 84° NNE 09:27:27 10° ESE night (unlit)
10 Oct - 11:00:45 10° W 11:04:27 22° SW 11:08:06 10° S visible
11 Oct - 02:53:43 10° SSW 02:58:09 39° SE 03:02:38 10° ENE visible
11 Oct - 04:35:32 10° WSW 04:40:16 58° NNW 04:45:02 10° ENE visible
11 Oct - 06:18:41 10° WNW 06:23:06 35° N 06:27:29 10° ENE night (unlit)
11 Oct - 08:01:19 10° WNW 08:06:00 49° NNE 08:10:38 10° E night (unlit)
11 Oct - 09:43:36 10° WNW 09:48:15 51° SW 09:52:50 10° SE night (unlit)
12 Oct - 01:39:00 10° S 01:42:03 17° SE 01:45:05 10° E visible
12 Oct - 03:18:52 10° SW 03:23:39 78° SSE 03:28:28 10° ENE visible
12 Oct - 05:01:36 10° W 05:06:08 41° NNW 05:10:42 10° ENE visible
12 Oct - 06:44:38 10° WNW 06:49:06 37° N 06:53:33 10° ENE night (unlit)
12 Oct - 08:26:56 10° WNW 08:31:46 79° NNE 08:36:32 10° ESE night (unlit)
12 Oct - 10:09:43 10° W 10:13:35 25° SW 10:17:25 10° S night (unlit)
